sat.trackr.live / text

‹ back to catalog

STARLINK-37567

NORAD 68903 · 2026-097J

PAYLOAD ACTIVE UNKNOWN

§ Identity

Operator
Country
US
Launch date
2026-04-30
Launch site
AFWTR
Launch vehicle
Mass (kg)
RCS (m²)

Purposes: comms

External: N2YO · Heavens-Above · Gunter

§ Orbital elements

Epoch: 2026-05-25T02:36:21.617856Z

Period
92.95 min
Inclination
97.2864°
Eccentricity
0.0002124
Mean motion
15.49192336 rev/d
Perigee alt
417.6 km
Apogee alt
420.5 km
Semi-major
6,797.2 km
B*
7.9864e-4
RAAN
340.8675°
Arg perigee
90.7425°
Mean anomaly
269.4069°
Rev number
394

§ Raw data

STARLINK-375671 68903U 26097J   26145.10858354  .00043593  00000+0  79864-3 0  99922 68903  97.2864 340.8675 0002124  90.7425 269.4069 15.49192336  3948

JSON: /api/v1/satellites/68903 · /tle

For live sub-satellite position, see the globe view (requires WebGL).

§ Visibility from observer

Set your observer location to see the next 7 days of passes ≥ 10°. The values pass through the URL so the page stays shareable.

No JS? Fill the form by hand. The geolocation button needs JavaScript.